Location: Newark
(48.3983°N, 16.0611°E)
Time: 20:42:40
(UTC+00:00)

ISS - Pass Details

Date: 29 January 2020
Orbit: 415 x 423 km, 51.6° (Epoch: 28 February)

Event Time Altitude Azimuth Distance (km) Brightness Sun altitude
Rises 18:13:32 0° 286° (WNW) 2,382 1.3 -24.0°
Reaches altitude 10° 18:15:41 10° 291° (WNW) 1,514 0.0 -24.3°
Enters shadow 18:17:41 30° 309° (NW) 781 -2.0 -24.6°
